Stuttgart, AR

10:49 PM CST on February 21, 2017 (GMT -0600)
Stuttgart Municipal

Weather History for KSGT - May, 2013

Change the Weather History Date:

Tuesday, May 21, 2013

  Actual Average Record
Temperature  
Mean Temperature 75 °F -  
Max Temperature 86 °F 80 °F 93 °F (1998)
Min Temperature 64 °F 61 °F 53 °F (2002)
Cooling Degree Days 10    
Growing Degree Days 25 (Base 50)    
Moisture  
Dew Point 63 °F    
Average Humidity 81    
Maximum Humidity 88    
Minimum Humidity 58    
Precipitation  
Precipitation 1.65 in - - ()
Sea Level Pressure  
Sea Level Pressure 29.88 in    
Wind  
Wind Speed 12 mph (ESE)    
Max Wind Speed 24 mph    
Max Gust Speed 31 mph    
Visibility 10 miles    
Events Thunderstorm    
Averages and records for this station are not official NWS values.
T = Trace of Precipitation, MM = Missing Value Source: NWS Daily Summary

Daily Weather History Graph

Daily Weather History Graph

Search for Another Location

Airport or City:

Trip Planner

Search our weather history database for the weather conditions in past years. The results will help you decide how hot, cold, wet, or windy it might be!

Date:

Astronomy

May. 21, 2013 Rise Set
Actual Time 5:59 AM CDT 8:06 PM CDT
Civil Twilight 5:31 AM CDT 8:35 PM CDT
Nautical Twilight 4:56 AM CDT 9:09 PM CDT
Astronomical Twilight 4:19 AM CDT 9:47 PM CDT
Moon 4:28 PM CDT (5/21) 3:17 AM CDT (5/21)
Length of Visible Light 15h 04m
Length of Day
14h 07m
Waxing Gibbous, 84% of the Moon is Illuminated
May 21
Waxing Gibbous
May 24
Full
May 31
Last Quarter
Jun 8
New
Jun 16
First Quarter

Hourly Weather History & Observations

Time (CDT) Temp. Heat Index Dew Point Humidity Pressure Visibility Wind Dir Wind Speed Gust Speed Precip Events Conditions
12:15 AM 78.8 °F - 68.0 °F 69% 29.89 in 10.0 mi SSW 12.7 mph - N/A   Clear
12:35 AM 78.8 °F - 68.0 °F 69% 29.90 in 10.0 mi SSW 6.9 mph - N/A   Clear
12:55 AM 78.8 °F - 68.0 °F 69% 29.93 in 10.0 mi WNW 24.2 mph 31.1 mph N/A   Scattered Clouds
1:15 AM 69.8 °F - 59.0 °F 68% 29.96 in 10.0 mi NW 18.4 mph 31.1 mph N/A Thunderstorm Thunderstorm
1:35 AM 66.2 °F - 60.8 °F 83% 29.94 in 5.0 mi NNW 19.6 mph 23.0 mph 0.01 in Thunderstorm Thunderstorm
1:55 AM 64.4 °F - 60.8 °F 88% 29.93 in 10.0 mi NNW 10.4 mph - 0.09 in Thunderstorm Thunderstorm
2:15 AM 64.4 °F - 60.8 °F 88% 29.90 in 9.0 mi East 5.8 mph - 0.04 in Thunderstorm Mostly Cloudy
2:35 AM 66.2 °F - 60.8 °F 83% 29.88 in 10.0 mi East 6.9 mph - 0.04 in   Partly Cloudy
2:55 AM 66.2 °F - 60.8 °F 83% 29.88 in 10.0 mi ESE 8.1 mph - 0.04 in   Scattered Clouds
3:15 AM 66.2 °F - 62.6 °F 88% 29.89 in 10.0 mi SE 10.4 mph - N/A   Overcast
3:35 AM 66.2 °F - 62.6 °F 88% 29.89 in 10.0 mi SE 5.8 mph - N/A   Overcast
3:55 AM 68.0 °F - 62.6 °F 83% 29.90 in 10.0 mi SE 4.6 mph - N/A   Overcast
4:15 AM 68.0 °F - 62.6 °F 83% 29.90 in 10.0 mi SE 4.6 mph - N/A   Overcast
4:35 AM 68.0 °F - 62.6 °F 83% 29.91 in 10.0 mi South 4.6 mph - N/A   Overcast
4:55 AM 68.0 °F - 62.6 °F 83% 29.90 in 10.0 mi South 4.6 mph - N/A   Overcast
5:15 AM 68.0 °F - 64.4 °F 88% 29.88 in 10.0 mi SE 6.9 mph - N/A   Scattered Clouds
5:35 AM 69.8 °F - 64.4 °F 83% 29.87 in 10.0 mi SE 10.4 mph - N/A   Scattered Clouds
5:55 AM 69.8 °F - 64.4 °F 83% 29.88 in 10.0 mi SE 8.1 mph - N/A   Mostly Cloudy
6:15 AM 68.0 °F - 64.4 °F 88% 29.90 in 10.0 mi SE 6.9 mph - N/A   Mostly Cloudy
6:35 AM 69.8 °F - 64.4 °F 83% 29.91 in 10.0 mi SE 6.9 mph - N/A   Mostly Cloudy
6:55 AM 69.8 °F - 64.4 °F 83% 29.92 in 10.0 mi SE 6.9 mph - N/A Thunderstorm Overcast
7:15 AM 69.8 °F - 64.4 °F 83% 29.93 in 10.0 mi NNW 21.9 mph 25.3 mph 0.02 in Thunderstorm Overcast
7:35 AM 66.2 °F - 60.8 °F 83% 29.95 in 5.0 mi NNW 12.7 mph - 0.12 in Thunderstorm Overcast
7:55 AM 64.4 °F - 60.8 °F 88% 29.94 in 10.0 mi North 5.8 mph - 0.20 in Thunderstorm Thunderstorm
8:15 AM 66.2 °F - 60.8 °F 83% 29.94 in 10.0 mi ENE 5.8 mph - 0.03 in   Overcast
8:35 AM 66.2 °F - 62.6 °F 88% 29.93 in 10.0 mi ENE 5.8 mph - 0.04 in   Overcast
8:55 AM 68.0 °F - 64.4 °F 88% 29.93 in 10.0 mi East 6.9 mph - 0.04 in   Overcast
9:15 AM 68.0 °F - 64.4 °F 88% 29.93 in 10.0 mi ESE 6.9 mph - N/A   Overcast
9:35 AM 68.0 °F - 64.4 °F 88% 29.92 in 10.0 mi ESE 9.2 mph - N/A   Overcast
9:55 AM 69.8 °F - 64.4 °F 83% 29.91 in 10.0 mi ESE 10.4 mph - N/A   Overcast
10:15 AM 71.6 °F - 64.4 °F 78% 29.91 in 10.0 mi ESE 8.1 mph - N/A   Overcast
10:35 AM 71.6 °F - 64.4 °F 78% 29.91 in 10.0 mi East 8.1 mph - N/A   Overcast
10:55 AM 73.4 °F - 66.2 °F 78% 29.91 in 10.0 mi SE 8.1 mph - N/A   Overcast
11:15 AM 75.2 °F - 68.0 °F 78% 29.90 in 10.0 mi SE 9.2 mph - N/A   Overcast
11:35 AM 78.8 °F - 69.8 °F 74% 29.90 in 10.0 mi SSE 10.4 mph - N/A   Mostly Cloudy
11:55 AM 80.6 °F 84.6 °F 71.6 °F 74% 29.88 in 10.0 mi SSE 11.5 mph - N/A   Partly Cloudy
12:15 PM 82.4 °F 87.2 °F 71.6 °F 70% 29.87 in 10.0 mi South 15.0 mph - N/A   Scattered Clouds
12:35 PM 84.2 °F 88.4 °F 69.8 °F 62% 29.87 in 10.0 mi South 19.6 mph - N/A   Overcast
12:55 PM 82.4 °F 86.3 °F 69.8 °F 66% 29.86 in 10.0 mi SSW 17.3 mph - N/A   Overcast
1:15 PM 84.2 °F 88.4 °F 69.8 °F 62% 29.85 in 10.0 mi South 17.3 mph 23.0 mph N/A   Mostly Cloudy
1:35 PM 84.2 °F 88.4 °F 69.8 °F 62% 29.83 in 10.0 mi South 20.7 mph - N/A   Mostly Cloudy
1:55 PM 86.0 °F 90.4 °F 69.8 °F 58% 29.83 in 10.0 mi South 18.4 mph 23.0 mph N/A   Overcast
2:15 PM 84.2 °F 88.4 °F 69.8 °F 62% 29.81 in 10.0 mi South 17.3 mph - N/A Thunderstorm Mostly Cloudy
2:35 PM 69.8 °F - 60.8 °F 73% 29.86 in 8.0 mi WNW 23.0 mph 28.8 mph 0.38 in Thunderstorm Thunderstorm
2:55 PM 66.2 °F - 60.8 °F 83% 29.84 in 10.0 mi NNW 21.9 mph 26.5 mph 0.65 in Thunderstorm Thunderstorm
3:15 PM 66.2 °F - 60.8 °F 83% 29.84 in 10.0 mi NNW 16.1 mph 26.5 mph N/A Thunderstorm Overcast
3:35 PM 66.2 °F - 60.8 °F 83% 29.85 in 10.0 mi NNW 18.4 mph 25.3 mph 0.10 in   Mostly Cloudy
3:55 PM 66.2 °F - 60.8 °F 83% 29.85 in 10.0 mi NNW 18.4 mph 25.3 mph 0.10 in   Mostly Cloudy
4:15 PM 66.2 °F - 60.8 °F 83% 29.83 in 10.0 mi North 13.8 mph - 0.01 in Thunderstorm Thunderstorm
4:35 PM 64.4 °F - 60.8 °F 88% 29.80 in 10.0 mi North 13.8 mph 17.3 mph 0.02 in   Mostly Cloudy
4:55 PM 66.2 °F - 60.8 °F 83% 29.79 in 10.0 mi NNE 10.4 mph - 0.02 in   Clear
5:15 PM 66.2 °F - 60.8 °F 83% 29.80 in 10.0 mi NNE 8.1 mph - N/A   Clear
5:35 PM 66.2 °F - 60.8 °F 83% 29.80 in 10.0 mi NE 10.4 mph - N/A   Clear
5:55 PM 66.2 °F - 60.8 °F 83% 29.81 in 10.0 mi East 8.1 mph - N/A   Partly Cloudy
6:15 PM 66.2 °F - 60.8 °F 83% 29.79 in 10.0 mi East 9.2 mph - N/A   Clear
6:35 PM 66.2 °F - 60.8 °F 83% 29.78 in 10.0 mi East 6.9 mph - N/A   Clear
6:55 PM 66.2 °F - 60.8 °F 83% 29.80 in 10.0 mi NE 5.8 mph - N/A   Clear
7:15 PM 66.2 °F - 60.8 °F 83% 29.86 in 10.0 mi NW 23.0 mph - N/A   Mostly Cloudy
7:35 PM 66.2 °F - 60.8 °F 83% 29.89 in 10.0 mi NW 20.7 mph 31.1 mph 0.04 in   Mostly Cloudy
7:55 PM 66.2 °F - 60.8 °F 83% 29.86 in 10.0 mi NNW 23.0 mph 28.8 mph 0.15 in   Overcast
8:15 PM 64.4 °F - 60.8 °F 88% 29.86 in 10.0 mi North 17.3 mph 26.5 mph 0.02 in   Mostly Cloudy
8:35 PM 64.4 °F - 59.0 °F 83% 29.93 in 10.0 mi WNW 12.7 mph - 0.02 in   Overcast
8:55 PM 64.4 °F - 59.0 °F 83% 29.93 in 10.0 mi NW 9.2 mph - 0.06 in   Mostly Cloudy
9:15 PM 64.4 °F - 59.0 °F 83% 29.93 in 10.0 mi WNW 13.8 mph - 0.05 in   Overcast
9:35 PM 64.4 °F - 60.8 °F 88% 29.93 in 10.0 mi WNW 10.4 mph - 0.12 in   Overcast
9:55 PM 64.4 °F - 60.8 °F 88% 29.94 in 10.0 mi West 3.5 mph - 0.19 in   Overcast
10:15 PM 64.4 °F - 60.8 °F 88% 29.94 in 10.0 mi West 3.5 mph - 0.05 in   Overcast
10:35 PM 64.4 °F - 59.0 °F 83% 29.91 in 10.0 mi SE 8.1 mph - 0.09 in   Overcast
10:55 PM 64.4 °F - 59.0 °F 83% 29.82 in 10.0 mi SE 17.3 mph - 0.11 in   Overcast
11:15 PM 64.4 °F - 59.0 °F 83% 29.76 in 10.0 mi SE 19.6 mph - N/A   Mostly Cloudy
11:55 PM 64.4 °F - 59.0 °F 83% 29.77 in 10.0 mi East 11.5 mph - N/A   Partly Cloudy